Location: Unspecified
(0.0000°N, 0.0000°E)
Time: 21:16:48
(UTC+00:00)

NOSS 3-4 (A) - Pass Details

Date: 13 August 2024
Orbit: 801 x 1411 km, 63.4° (Epoch: 09 September)

Event Time Altitude Azimuth Distance (km) Brightness Sun altitude
Rises 05:09:36 0° 18° (NNE) 4,196 7.3 -13.4°
Reaches altitude 10° 05:14:51 10° 47° (NE) 3,356 7.3 -12.1°
Maximum altitude 05:17:40 12° 67° (ENE) 3,256 7.7 -11.4°
Drops below altitude 10° 05:20:31 10° 87° (E) 3,451 7.8 -10.7°
Sets 05:26:04 0° 115° (ESE) 4,473 7.8 -9.4°
